Location: La Fredeussais
(48.1780°N, 1.3980°W)
Time: 09:14:57
(UTC+00:00)

STARLINK-2734 - Pass Details

Date: 30 July 2021
Orbit: 546 x 548 km, 53.1° (Epoch: 19 September)

Event Time Altitude Azimuth Distance (km) Brightness Sun altitude
Rises 20:40:08 0° 294° (WNW) 2,718 8.9 -8.5°
Reaches altitude 10° 20:42:33 10° 283° (WNW) 1,821 7.4 -8.8°
Maximum altitude 20:46:11 30° 222° (SW) 986 4.9 -9.2°
Enters shadow 20:49:48 10° 160° (SSE) 1,806 5.7 -9.7°
